Location: Cherry Springs State Park
(41.6616°N, 77.8240°W)
Time: 01:42:54
(UTC-04:00)

Cosmos 1939 Rocket - Visible Passes

Search period start: 22 May 2018 00:00
Search period end: 01 June 2018 00:00
Orbit: 534 x 584 km, 97.5° (Epoch: 21 May)

Date Brightness Start Highest point End Pass type
(mag) Time Alt. Az. Time Alt. Az. Time Alt. Az.
22 May 5.7 22:07:18 10° SW 22:09:34 14° W 22:11:49 10° WNW visible
23 May 5.6 22:05:48 10° SW 22:08:09 15° W 22:10:32 10° NW visible
24 May 5.6 22:04:18 10° SW 22:06:45 15° W 22:09:13 10° NW visible
25 May 5.6 22:02:48 10° SW 22:05:21 16° W 22:07:55 10° NW visible
26 May 5.6 22:01:19 10° SW 22:03:57 16° W 22:06:37 10° NW visible
27 May 5.6 21:59:50 10° SW 22:02:33 17° W 22:05:18 10° NW visible
28 May 5.5 21:58:22 10° SW 22:01:09 18° W 22:03:59 10° NW visible
29 May 5.5 21:56:54 10° SW 21:59:47 18° W 22:02:40 10° NW visible
30 May 5.5 21:55:26 10° SW 21:58:23 19° W 22:01:20 10° NW visible
31 May 5.4 21:53:59 10° SW 21:56:59 19° W 22:00:01 10° NW visible
